{"data":{"norad_id":45366,"epoch":"2026-05-25T01:54:52.527168Z","epoch_age_seconds":71206,"freshness":"FRESH","line1":"1 45366U 20019G   26145.07977462  .00031483  00000+0  99143-3 0  9993","line2":"2 45366  53.1537 170.1475 0003841  26.1644 333.9551 15.32669649341451","mean_motion":15.32669649,"eccentricity":0.0003841,"inclination_deg":53.1537,"raan_deg":170.1475,"arg_perigee_deg":26.1644,"mean_anomaly_deg":333.9551,"bstar":0.00099143,"rev_number":34145,"period_min":93.953710177502,"perigee_km":465.22150200203,"apogee_km":470.48059001897,"semimajor_km":6845.9880460105,"source":"CELESTRAK","updated_at":"2026-05-25T13:38:16.386946Z"}}